Terminal Aerodrome Forecast
Issued by NWS

Home | Current Version | Previous Version | Text Only | Print | Product List | Glossary On
Versions: 1 2 3 4 5 6 7 8 9 10 11 12 13 14 15 16 17 18 19 20
975
FTUS43 KLSX 232018 AAA
TAFUIN
TAF AMD
KUIN 232018Z 2320/2418 34014KT P6SM SCT060
     FM240100 32008KT P6SM FEW250=

USA.gov is the U.S. government's official web portal to all federal, state and local government web resources and services.